Погода в Поселке База Дрофа

Россия / Хабаровский край     47°53′12″N   135°01′51″E
темп.,
°C
ветер,
м/с
пор.,
м/с
влажн.,
%
обл.,
%
осадки,
мм/ч
давл.,
гПа
погр.,
м
13 апреля, вт
вт1301:00+12ююз101850100 0.1 1005898
04:00+10ююз71361100 0.3 1003834
07:00+7юз61286100 1.6 10011132
10:00+1з4796100 4.6 1002382
13:00−1зсз6890100 1.9 1002663
16:00+1з61086100 2.7 1001848
19:00+1зсз81266100 0.4 10021476
22:00−3з612550 0.4 1003535
14 апреля, ср
ср1401:00−4зюз71259100 0.0 1002956
04:00−4зюз8136396 0.1 10021199
07:00−4з8136282 0.0 10031194
10:00−1з91247100 0.0 10041957
13:00+1з91237100 0.0 10042643
16:00+1з81235100 0.0 10052759
19:000з6104393 0.0 10061005
22:00−3зюз38665 0.0 1008166
15 апреля, чт
чт1501:00−3зюз41069100 0.0 1009329
04:00−4зюз497237 0.0 1010353
07:00−4зюз39700 0.0 1012367
10:00+2з68352 0.0 10131638
13:00+5з46261 0.0 10131985
16:00+7з35230 0.0 10131929
19:00+6ю11305 0.0 101422
22:00+3в354277 0.0 101581
16 апреля, пт
пт1601:00+2всв5948100 0.0 1014182
04:00+2в4851100 0.0 1012176
07:00+2в475893 0.2 1011159
10:00+9в354040 0.2 1010440
13:00+15ююв6826100 0.0 10092231
16:00+15ю7932100 0.0 10072391
19:00+12юв71237100 0.0 1007808
22:00+9ююв61338100 0.0 1007730
17 апреля, сб
сб1701:00+7всв3652100 0.0 1005176
04:00+4всв4589100 2.8 1005544
07:00+4всв3491100 0.6 1005211
10:00+7юз4774100 0.6 1006898
13:00+9зсз346164 0.4 1006860
16:00+12ссз554655 0.4 10041706
19:00+6ссв4676100 0.0 1006385
22:00+3ссв3489100 0.0 1008244